This is the latest recevied weather packets stored in our database for station/object KD8DLP-13. If no packets are shown the sender has not sent any weather packets the latest 10 day(s).
| Time | Temp. | Humidity | Pressure | Rain* | Wind** | Luminosity | Snow |
|---|---|---|---|---|---|---|---|
| 1777385110 | 11.11° C | 90% | 1010.7 hPa | 0 mm | - | 109 W/m² | - |
| 1777384806 | 11.11° C | 90% | 1010.8 hPa | 0 mm | - | 113 W/m² | - |
| 1777384503 | 11.11° C | 91% | 1010.7 hPa | 0 mm | - | 104 W/m² | - |
| 1777384197 | 11.11° C | 90% | 1010.5 hPa | 0 mm | - | 95 W/m² | - |
| 1777383894 | 10.56° C | 90% | 1010.5 hPa | 0 mm | - | 76 W/m² | - |
| 1777383590 | 11.11° C | 90% | 1010.3 hPa | 0 mm | - | 79 W/m² | - |
| 1777383286 | 11.11° C | 89% | 1010.2 hPa | 0 mm | - | 74 W/m² | - |
| 1777382983 | 11.11° C | 89% | 1010.2 hPa | 0 mm | - | 74 W/m² | - |
| 1777382679 | 11.11° C | 90% | 1010 hPa | 0 mm | - | 100 W/m² | - |
| 1777382374 | 11.11° C | 89% | 1010.1 hPa | 0 mm | - | 71 W/m² | - |
| 1777382071 | 11.11° C | 90% | 1009.9 hPa | 0 mm | - | 56 W/m² | - |
| 1777381767 | 11.11° C | 90% | 1009.9 hPa | 0 mm | - | 56 W/m² | - |
| 1777381462 | 11.11° C | 90% | 1009.8 hPa | 0 mm | - | 69 W/m² | - |
| 1777381158 | 11.11° C | 90% | 1009.2 hPa | 0 mm | - | 56 W/m² | - |
| 1777380855 | 11.11° C | 90% | 1009.5 hPa | 0 mm | - | 61 W/m² | - |
| 1777380552 | 11.11° C | 90% | 1009.1 hPa | 0 mm | - | 52 W/m² | - |
| 1777380249 | 11.11° C | 90% | 1009 hPa | 0 mm | - | 37 W/m² | - |
| 1777379945 | 11.11° C | 90% | 1009 hPa | 0 mm | - | 35 W/m² | - |
| 1777379641 | 11.11° C | 90% | 1009.1 hPa | 0 mm | - | 32 W/m² | - |
| 1777379336 | 10.56° C | 90% | 1008.8 hPa | 0 mm | - | 25 W/m² | - |
| 1777379030 | 11.11° C | 90% | 1008.8 hPa | 0 mm | - | 26 W/m² | - |
| 1777378726 | 10.56° C | 90% | 1008.6 hPa | 0 mm | - | 22 W/m² | - |
| 1777378423 | 10.56° C | 91% | 1008.5 hPa | 0 mm | - | 19 W/m² | - |
| 1777378117 | 11.11° C | 91% | 1008.5 hPa | 0 mm | - | 14 W/m² | - |
| 1777377812 | 10.56° C | 90% | 1008.5 hPa | 0 mm | - | 13 W/m² | - |
* Rain latest hour (hover to see other rain measurements)
** Current wind speed in m/s (hover to see current wind gust speed)